Location: Akgöl Batakl???
(38.9482°N, 31.8837°E)
Time: 07:32:29
(UTC+00:00)

Cosmos 1459 Rocket - Pass Details

Date: 08 May 2026
Orbit: 935 x 999 km, 83.0° (Epoch: 6 June)

Event Time Altitude Azimuth Distance (km) Brightness Sun altitude
Exits shadow 18:36:24 - 192° (SSW) 3,547 6.6 -18.0°
Reaches altitude 10° 18:38:35 10° 194° (SSW) 2,733 6.1 -18.3°
Maximum altitude 18:44:50 71° 278° (W) 1,029 4.2 -19.2°
Drops below altitude 10° 18:51:01 10° 2° (N) 2,706 6.9 -20.1°
Sets 18:53:32 0° 5° (N) 3,647 7.6 -20.4°
